Location: Newark
(44.3248°N, 23.7839°E)
Time: 22:48:33
(UTC+00:00)

PCSat - Pass Details

Date: 22 April 2024
Orbit: 783 x 792 km, 67.1° (Epoch: 21 May)

Event Time Altitude Azimuth Distance (km) Brightness Sun altitude
Rises 19:09:05 0° 256° (WSW) 3,276 13.3 -18.1°
Reaches altitude 10° 19:12:07 10° 273° (W) 2,352 12.8 -18.5°
Maximum altitude 19:16:03 20° 320° (NW) 1,762 12.3 -19.0°
Drops below altitude 10° 19:20:00 10° 7° (N) 2,365 12.5 -19.6°
Sets 19:23:05 0° 25° (NNE) 3,299 13.0 -20.0°
